This is the latest recevied weather packets stored in our database for station/object KE5VBO-1. If no packets are shown the sender has not sent any weather packets the latest 10 day(s).
| Time | Temp. | Humidity | Pressure | Rain* | Wind** | Luminosity | Snow |
|---|---|---|---|---|---|---|---|
| 1777900524 | 17.78° C | 18% | 1011.5 hPa | 0 mm | - | - | - |
| 1777899658 | 17.22° C | 16% | 1011.5 hPa | 0 mm | - | - | - |
| 1777898719 | 16.67° C | 6% | 1011.6 hPa | 0 mm | - | - | - |
| 1777897858 | 16.67° C | 5% | 1011.5 hPa | 0 mm | - | - | - |
| 1777896922 | 16.11° C | 1% | 1011.3 hPa | 0 mm | - | - | - |
| 1777896054 | 16.11° C | 1% | 1011.2 hPa | 0 mm | - | - | - |
| 1777895119 | 16.11° C | 1% | 1011.2 hPa | 0 mm | - | - | - |
| 1777894254 | 16.11° C | 1% | 1011.1 hPa | 0 mm | - | - | - |
| 1777893326 | 16.11° C | 5% | 1011.2 hPa | 0 mm | - | - | - |
| 1777892462 | 16.67° C | 9% | 1011.1 hPa | 0 mm | - | - | - |
| 1777891522 | 16.67° C | 14% | 1011.1 hPa | 0 mm | - | - | - |
| 1777890665 | 16.67° C | 10% | 1011.2 hPa | 0 mm | - | - | - |
| 1777889737 | 16.67° C | 11% | 1011.3 hPa | 0 mm | - | - | - |
| 1777888802 | 16.11° C | 21% | 1011.3 hPa | 0 mm | - | - | - |
| 1777887949 | 16.11° C | 33% | 1011.3 hPa | 0 mm | - | - | - |
| 1777887012 | 16.67° C | 41% | 1011.3 hPa | 0 mm | - | - | - |
| 1777886181 | 16.67° C | 44% | 1011.6 hPa | 0 mm | - | - | - |
| 1777885236 | 16.67° C | 45% | 1011.7 hPa | 0 mm | - | - | - |
| 1777884303 | 16.11° C | 41% | 1011.7 hPa | 0 mm | - | - | - |
| 1777883446 | 16.67° C | 41% | 1011.9 hPa | 0 mm | - | - | - |
| 1777882512 | 16.67° C | 42% | 1012 hPa | 0 mm | - | - | - |
| 1777881649 | 16.67° C | 44% | 1012 hPa | 0 mm | - | - | - |
| 1777880714 | 17.22° C | 47% | 1012.1 hPa | 0 mm | - | - | - |
| 1777879847 | 17.78° C | 49% | 1012.2 hPa | 0 mm | - | - | - |
| 1777878907 | 17.78° C | 52% | 1012.3 hPa | 0 mm | - | - | - |
* Rain latest hour (hover to see other rain measurements)
** Current wind speed in m/s (hover to see current wind gust speed)